Location: Huntsville
(41.2590°N, 111.7678°W)
Time: 04:04:57
(UTC+00:00)

Vanguard 1 - Visible Passes

Search period start: 06 October 2022 00:00
Search period end: 16 October 2022 00:00
Orbit: 649 x 3832 km, 34.2° (Epoch: 05 October)

Date Brightness Start Highest point End Pass type
(mag) Time Alt. Az. Time Alt. Az. Time Alt. Az.
06 Oct 11.9 01:46:55 10° W 01:54:38 28° SW 01:59:41 10° SSE visible
07 Oct 12.1 02:08:29 10° W 02:14:44 21° SW 02:19:12 10° S visible
08 Oct 12.4 02:30:39 10° WSW 02:34:44 14° SW 02:38:01 10° SSW visible
11 Oct 12.4 01:07:23 10° W 01:16:29 26° SW 01:22:23 10° SSE visible
12 Oct 12.7 01:29:23 10° W 01:36:26 19° SW 01:41:29 10° S visible
13 Oct 13.0 01:52:27 10° WSW 01:56:16 12° SW 01:59:27 10° SSW visible
